Location: Landeleau
(48.2273°N, 3.7285°W)
Time: 21:10:19
(UTC+00:00)

CZ-2C R/B - Pass Details

Date: 30 March 2020
Orbit: 639 x 705 km, 98.4° (Epoch: 24 May)

Event Time Altitude Azimuth Distance (km) Brightness Sun altitude
Rises 19:42:34 0° 20° (NNE) 3,106 7.1 -10.5°
Reaches altitude 10° 19:44:58 10° 27° (NNE) 2,179 6.3 -10.9°
Maximum altitude 19:49:29 41° 98° (E) 1,016 4.2 -11.6°
Drops below altitude 10° 19:53:54 10° 168° (SSE) 2,135 6.0 -12.3°
Sets 19:56:14 0° 176° (S) 3,036 6.8 -12.6°
